User: anonymous   Login
Location: Belfast
(54.5830°N, 5.9330°W)
Time: 02:59:56
(UTC+00:00)
Language:

ISS - Orbit

View from above orbital plane
View from above orbital plane
View from above satellite
View from above satellite

Ground track
Ground track

The orbit data is extracted from the following two-line orbital elements,

1 25544U 98067A   21057.11609670  .00016717  00000-0  10270-3 0  9103
2 25544  51.6438 172.0999 0003216  48.8369 311.3058 15.49009914 31373
Epoch (UTC): 26 February 2021 02:47:10
Eccentricity: 0.0003216
inclination: 51.6438°
perigee height: 417 km
apogee height: 422 km
right ascension of ascending node: 172.0999°
argument of perigee: 48.8369°
revolutions per day: 15.49009914
mean anomaly at epoch: 311.3058°
orbit number at epoch: 3137

The dashed part of the orbit path shows where the satellite is in the earth's shadow,  

DLR